{"data":{"norad_id":29479,"epoch":"2026-05-25T00:29:12.695712Z","epoch_age_seconds":73229,"freshness":"FRESH","line1":"1 29479U 06041A   26145.02028583  .00000596  00000+0  11081-3 0  9991","line2":"2 29479  98.0554 161.5144 0017522   6.7318 353.4119 14.68583216 51475","mean_motion":14.68583216,"eccentricity":0.0017522,"inclination_deg":98.0554,"raan_deg":161.5144,"arg_perigee_deg":6.7318,"mean_anomaly_deg":353.4119,"bstar":0.00011081,"rev_number":5147,"period_min":98.053687684253,"perigee_km":653.25260747658,"apogee_km":677.93666061493,"semimajor_km":7043.7316340458,"source":"CELESTRAK","updated_at":"2026-05-25T13:38:24.638701Z"}}